START_TIME,STEP,MOV.,M35,t_acc.,PL05,t_acc.,PL06,t_acc.,PL07,t_acc.
1979-08-03 21:00:22.620 ,0,0,0.,4.8,2.,4.8,0.,4.8,1.,4.8
1979-08-03 21:00:27.420 ,0,0,0.,4.8,2.,4.8,0.,4.8,0.,4.8
1979-08-03 21:00:32.220 ,0,0,0.,4.8,2.,4.8,0.,4.8,0.,4.8
1979-08-03 21:00:37.020 ,0,0,0.,4.8,3.,4.8,0.,4.8,1.,4.8
1979-08-03 21:00:41.820 ,0,0,0.,4.8,1.,4.8,0.,4.8,0.,4.8
1979-08-03 21:00:46.620 ,0,0,0.,4.8,3.,4.8,0.,4.8,0.,4.8
1979-08-03 21:00:51.420 ,0,0,0.,4.8,4.,4.8,2.,4.8,0.,4.8
1979-08-03 21:00:56.220 ,0,0,0.,4.8,2.,4.8,0.,4.8,0.,4.8
1979-08-03 21:01:01.020 ,0,0,0.,4.8,2.,4.8,0.,4.8,0.,4.8
1979-08-03 21:01:05.820 ,0,0,0.,4.8,2.,4.8,1.,4.8,0.,4.8
1979-08-03 21:01:10.610 ,0,0,0.,4.8,2.,4.8,0.,4.8,0.,4.8
1979-08-03 21:01:15.420 ,0,0,0.,4.8,2.,4.8,1.,4.8,0.,4.8
1979-08-03 21:01:20.220 ,0,0,0.,4.8,2.,4.8,0.,4.8,0.,4.8
1979-08-03 21:01:25.020 ,0,0,0.,4.8,3.,4.8,1.,4.8,0.,4.8
1979-08-03 21:01:29.820 ,0,0,0.,4.8,2.,4.8,0.,4.8,0.,4.8
1979-08-03 21:01:34.610 ,1,0,0.,4.8,1.,4.8,0.,4.8,0.,4.8
1979-08-03 21:01:39.420 ,1,0,0.,4.8,1.,4.8,0.,4.8,0.,4.8
1979-08-03 21:01:44.220 ,1,0,0.,4.8,1.,4.8,0.,4.8,1.,4.8
1979-08-03 21:01:49.020 ,1,0,0.,4.8,1.,4.8,0.,4.8,0.,4.8
1979-08-03 21:01:53.820 ,1,0,0.,4.8,2.,4.8,0.,4.8,0.,4.8
1979-08-03 21:01:58.610 ,1,0,0.,4.8,2.,4.8,0.,4.8,0.,4.8
1979-08-03 21:02:03.420 ,1,0,0.,4.8,2.,4.8,2.,4.8,0.,4.8
1979-08-03 21:02:08.220 ,1,0,0.,4.8,2.,4.8,0.,4.8,0.,4.8
1979-08-03 21:02:13.020 ,1,0,0.,4.8,2.,4.8,0.,4.8,0.,4.8
1979-08-03 21:02:17.820 ,1,0,0.,4.8,1.,4.8,0.,4.8,0.,4.8
1979-08-03 21:02:22.610 ,2,0,0.,4.8,2.,4.8,0.,4.8,0.,4.8
1979-08-03 21:02:27.410 ,2,0,0.,4.8,0.,4.8,1.,4.8,0.,4.8
1979-08-03 21:02:32.210 ,2,0,0.,4.8,2.,4.8,0.,4.8,1.,4.8
1979-08-03 21:02:37.010 ,2,0,0.,4.8,2.,4.8,1.,4.8,1.,4.8
1979-08-03 21:02:41.820 ,2,0,0.,4.8,2.,4.8,0.,4.8,0.,4.8
1979-08-03 21:02:46.610 ,2,0,0.,4.8,1.,4.8,0.,4.8,0.,4.8
1979-08-03 21:02:51.410 ,2,0,0.,4.8,1.,4.8,0.,4.8,0.,4.8
1979-08-03 21:02:56.220 ,2,0,0.,4.8,2.,4.8,0.,4.8,0.,4.8
1979-08-03 21:03:01.010 ,2,0,0.,4.8,2.,4.8,0.,4.8,0.,4.8
1979-08-03 21:03:05.820 ,2,0,0.,4.8,0.,4.8,2.,4.8,1.,4.8
1979-08-03 21:03:10.610 ,3,0,0.,4.8,1.,4.8,0.,4.8,1.,4.8
1979-08-03 21:03:15.410 ,3,0,0.,4.8,0.,4.8,0.,4.8,0.,4.8
1979-08-03 21:03:20.210 ,3,0,0.,4.8,0.,4.8,0.,4.8,0.,4.8
1979-08-03 21:03:25.010 ,3,0,0.,4.8,1.,4.8,0.,4.8,0.,4.8
1979-08-03 21:03:29.820 ,3,0,0.,4.8,1.,4.8,0.,4.8,0.,4.8
1979-08-03 21:03:34.610 ,3,0,0.,4.8,1.,4.8,0.,4.8,0.,4.8
1979-08-03 21:03:39.410 ,3,0,0.,4.8,0.,4.8,0.,4.8,0.,4.8
1979-08-03 21:03:44.210 ,3,0,0.,4.8,0.,4.8,0.,4.8,1.,4.8
1979-08-03 21:03:49.010 ,3,0,0.,4.8,2.,4.8,0.,4.8,0.,4.8
1979-08-03 21:03:53.820 ,3,0,0.,4.8,2.,4.8,0.,4.8,0.,4.8
1979-08-03 21:03:58.610 ,4,0,0.,4.8,1.,4.8,1.,4.8,0.,4.8
1979-08-03 21:04:03.410 ,4,0,0.,4.8,5.,4.8,1.,4.8,0.,4.8
1979-08-03 21:04:08.210 ,4,0,0.,4.8,1.,4.8,1.,4.8,0.,4.8
1979-08-03 21:04:13.010 ,4,0,0.,4.8,2.,4.8,0.,4.8,0.,4.8
1979-08-03 21:04:17.810 ,4,0,0.,4.8,0.,4.8,2.,4.8,0.,4.8
1979-08-03 21:04:22.610 ,4,0,0.,4.8,0.,4.8,0.,4.8,0.,4.8
1979-08-03 21:04:27.410 ,4,0,0.,4.8,2.,4.8,1.,4.8,0.,4.8
1979-08-03 21:04:32.210 ,4,0,0.,4.8,1.,4.8,0.,4.8,0.,4.8
1979-08-03 21:04:37.010 ,4,0,0.,4.8,1.,4.8,0.,4.8,0.,4.8
1979-08-03 21:04:41.810 ,4,0,0.,4.8,0.,4.8,0.,4.8,0.,4.8
1979-08-03 21:04:46.610 ,5,0,0.,4.8,1.,4.8,0.,4.8,0.,4.8
1979-08-03 21:04:51.410 ,5,0,0.,4.8,0.,4.8,0.,4.8,0.,4.8
1979-08-03 21:04:56.210 ,5,0,0.,4.8,0.,4.8,0.,4.8,0.,4.8
1979-08-03 21:05:01.010 ,5,0,0.,4.8,1.,4.8,0.,4.8,0.,4.8
1979-08-03 21:05:05.810 ,5,0,0.,4.8,2.,4.8,1.,4.8,0.,4.8
1979-08-03 21:05:10.610 ,5,0,0.,4.8,1.,4.8,1.,4.8,0.,4.8
1979-08-03 21:05:15.410 ,5,0,0.,4.8,1.,4.8,0.,4.8,0.,4.8
1979-08-03 21:05:20.210 ,5,0,0.,4.8,0.,4.8,0.,4.8,0.,4.8
1979-08-03 21:05:25.010 ,5,0,0.,4.8,2.,4.8,0.,4.8,0.,4.8
1979-08-03 21:05:29.810 ,5,0,0.,4.8,1.,4.8,0.,4.8,0.,4.8
1979-08-03 21:05:34.610 ,6,0,0.,4.8,1.,4.8,0.,4.8,0.,4.8
1979-08-03 21:05:39.410 ,6,0,0.,4.8,2.,4.8,0.,4.8,0.,4.8
1979-08-03 21:05:44.210 ,6,0,0.,4.8,3.,4.8,0.,4.8,0.,4.8
1979-08-03 21:05:49.010 ,6,0,0.,4.8,0.,4.8,0.,4.8,0.,4.8
1979-08-03 21:05:53.810 ,6,0,0.,4.8,3.,4.8,0.,4.8,0.,4.8
1979-08-03 21:05:58.610 ,6,0,0.,4.8,0.,4.8,0.,4.8,0.,4.8
1979-08-03 21:06:03.410 ,6,0,0.,4.8,2.,4.8,0.,4.8,0.,4.8
1979-08-03 21:06:08.210 ,6,0,0.,4.8,2.,4.8,2.,4.8,0.,4.8
1979-08-03 21:06:13.010 ,6,0,0.,4.8,2.,4.8,1.,4.8,0.,4.8
1979-08-03 21:06:17.810 ,6,0,0.,4.8,0.,4.8,1.,4.8,1.,4.8
1979-08-03 21:06:22.610 ,7,0,0.,4.8,2.,4.8,2.,4.8,0.,4.8
1979-08-03 21:06:27.410 ,7,0,0.,4.8,0.,4.8,0.,4.8,0.,4.8
1979-08-03 21:06:32.210 ,7,0,0.,4.8,2.,4.8,0.,4.8,0.,4.8
1979-08-03 21:06:37.010 ,7,0,0.,4.8,0.,4.8,0.,4.8,0.,4.8
1979-08-03 21:06:41.810 ,7,0,0.,4.8,0.,4.8,0.,4.8,0.,4.8
1979-08-03 21:06:46.610 ,7,0,0.,4.8,2.,4.8,0.,4.8,0.,4.8
1979-08-03 21:06:51.410 ,7,0,0.,4.8,0.,4.8,0.,4.8,0.,4.8
1979-08-03 21:06:56.210 ,7,0,0.,4.8,0.,4.8,0.,4.8,0.,4.8
1979-08-03 21:07:01.010 ,7,0,0.,4.8,0.,4.8,0.,4.8,0.,4.8
1979-08-03 21:07:05.810 ,7,0,0.,4.8,0.,4.8,0.,4.8,0.,4.8
1979-08-03 21:07:10.610 ,3,1,0.,4.8,1.,4.8,0.,4.8,0.,4.8
1979-08-03 21:07:15.410 ,3,1,0.,4.8,0.,4.8,0.,4.8,0.,4.8
1979-08-03 21:07:20.210 ,3,1,0.,4.8,0.,4.8,0.,4.8,0.,4.8
1979-08-03 21:07:25.010 ,3,1,0.,4.8,2.,4.8,0.,4.8,0.,4.8
1979-08-03 21:07:29.810 ,3,1,0.,4.8,0.,4.8,0.,4.8,0.,4.8
1979-08-03 21:07:34.610 ,0,1,0.,4.8,0.,4.8,0.,4.8,0.,4.8
1979-08-03 21:07:39.410 ,0,1,0.,4.8,1.,4.8,1.,4.8,0.,4.8
1979-08-03 21:07:44.210 ,0,1,0.,4.8,1.,4.8,1.,4.8,0.,4.8
1979-08-03 21:07:49.010 ,0,1,0.,4.8,1.,4.8,0.,4.8,0.,4.8
1979-08-03 21:07:53.810 ,0,1,0.,4.8,1.,4.8,2.,4.8,0.,4.8
1979-08-03 21:07:58.610 ,4,1,0.,4.8,2.,4.8,0.,4.8,0.,4.8
1979-08-03 21:08:03.410 ,4,1,0.,4.8,1.,4.8,0.,4.8,0.,4.8
1979-08-03 21:08:08.210 ,4,1,0.,4.8,2.,4.8,0.,4.8,0.,4.8
1979-08-03 21:08:13.010 ,4,1,0.,4.8,2.,4.8,0.,4.8,0.,4.8
1979-08-03 21:08:17.810 ,4,1,0.,4.8,1.,4.8,0.,4.8,0.,4.8
1979-08-03 21:08:22.610 ,7,1,0.,4.8,1.,4.8,0.,4.8,0.,4.8
1979-08-03 21:08:27.410 ,7,1,0.,4.8,2.,4.8,0.,4.8,0.,4.8
1979-08-03 21:08:32.210 ,7,1,0.,4.8,2.,4.8,0.,4.8,0.,4.8
1979-08-03 21:08:37.010 ,7,1,0.,4.8,0.,4.8,0.,4.8,0.,4.8
1979-08-03 21:08:41.810 ,7,1,0.,4.8,0.,4.8,0.,4.8,0.,4.8
1979-08-03 21:08:46.610 ,3,1,0.,4.8,0.,4.8,0.,4.8,0.,4.8
1979-08-03 21:08:51.410 ,3,1,0.,4.8,0.,4.8,0.,4.8,0.,4.8
1979-08-03 21:08:56.210 ,3,1,0.,4.8,0.,4.8,0.,4.8,0.,4.8
1979-08-03 21:09:01.010 ,3,1,0.,4.8,1.,4.8,0.,4.8,0.,4.8
1979-08-03 21:09:05.810 ,3,1,0.,4.8,0.,4.8,0.,4.8,0.,4.8
1979-08-03 21:09:10.610 ,0,1,0.,4.8,2.,4.8,0.,4.8,0.,4.8
1979-08-03 21:09:15.410 ,0,1,0.,4.8,1.,4.8,0.,4.8,1.,4.8
1979-08-03 21:09:20.210 ,0,1,0.,4.8,2.,4.8,1.,4.8,0.,4.8
1979-08-03 21:09:25.010 ,0,1,0.,4.8,3.,4.8,0.,4.8,0.,4.8
1979-08-03 21:09:29.810 ,0,1,0.,4.8,4.,4.8,1.,4.8,0.,4.8
1979-08-03 21:09:34.610 ,4,1,0.,4.8,0.,4.8,0.,4.8,0.,4.8
1979-08-03 21:09:39.410 ,4,1,0.,4.8,0.,4.8,0.,4.8,0.,4.8
1979-08-03 21:09:44.210 ,4,1,0.,4.8,1.,4.8,0.,4.8,0.,4.8
1979-08-03 21:09:49.010 ,4,1,0.,4.8,0.,4.8,0.,4.8,0.,4.8
1979-08-03 21:09:53.810 ,4,1,0.,4.8,1.,4.8,0.,4.8,0.,4.8
1979-08-03 21:09:58.610 ,7,1,0.,4.8,0.,4.8,1.,4.8,0.,4.8
1979-08-03 21:10:03.410 ,7,1,0.,4.8,0.,4.8,1.,4.8,1.,4.8
1979-08-03 21:10:08.210 ,7,1,0.,4.8,3.,4.8,0.,4.8,0.,4.8
1979-08-03 21:10:13.010 ,7,1,0.,4.8,0.,4.8,0.,4.8,0.,4.8
1979-08-03 21:10:17.810 ,7,1,0.,4.8,1.,4.8,0.,4.8,0.,4.8
1979-08-03 21:10:22.610 ,3,1,0.,4.8,1.,4.8,0.,4.8,0.,4.8
1979-08-03 21:10:27.410 ,3,1,0.,4.8,2.,4.8,0.,4.8,1.,4.8
1979-08-03 21:10:32.210 ,3,1,0.,4.8,0.,4.8,0.,4.8,0.,4.8
1979-08-03 21:10:37.010 ,3,1,0.,4.8,0.,4.8,0.,4.8,0.,4.8
1979-08-03 21:10:41.810 ,3,1,0.,4.8,0.,4.8,1.,4.8,0.,4.8
1979-08-03 21:10:46.610 ,0,1,0.,4.8,1.,4.8,1.,4.8,0.,4.8
1979-08-03 21:10:51.410 ,0,1,0.,4.8,2.,4.8,0.,4.8,0.,4.8
1979-08-03 21:10:56.210 ,0,1,0.,4.8,1.,4.8,1.,4.8,0.,4.8
1979-08-03 21:11:01.010 ,0,1,0.,4.8,2.,4.8,0.,4.8,0.,4.8
1979-08-03 21:11:05.810 ,0,1,0.,4.8,3.,4.8,1.,4.8,0.,4.8
1979-08-03 21:11:10.610 ,4,1,0.,4.8,1.,4.8,0.,4.8,1.,4.8
1979-08-03 21:11:15.410 ,4,1,0.,4.8,1.,4.8,0.,4.8,1.,4.8
1979-08-03 21:11:20.210 ,4,1,0.,4.8,4.,4.8,1.,4.8,0.,4.8
1979-08-03 21:11:25.010 ,4,1,0.,4.8,0.,4.8,0.,4.8,0.,4.8
1979-08-03 21:11:29.810 ,4,1,0.,4.8,0.,4.8,0.,4.8,0.,4.8
1979-08-03 21:11:34.610 ,7,1,0.,4.8,2.,4.8,2.,4.8,0.,4.8
1979-08-03 21:11:39.410 ,7,1,0.,4.8,1.,4.8,0.,4.8,0.,4.8
1979-08-03 21:11:44.210 ,7,1,0.,4.8,0.,4.8,1.,4.8,0.,4.8
1979-08-03 21:11:49.010 ,7,1,0.,4.8,0.,4.8,0.,4.8,0.,4.8
1979-08-03 21:11:53.810 ,7,1,0.,4.8,2.,4.8,0.,4.8,1.,4.8
1979-08-03 21:11:58.610 ,3,1,0.,4.8,2.,4.8,0.,4.8,0.,4.8
1979-08-03 21:12:03.410 ,3,1,0.,4.8,1.,4.8,0.,4.8,0.,4.8
1979-08-03 21:12:08.210 ,3,1,0.,4.8,2.,4.8,0.,4.8,0.,4.8
1979-08-03 21:12:13.010 ,3,1,0.,4.8,1.,4.8,0.,4.8,0.,4.8
1979-08-03 21:12:17.810 ,3,1,0.,4.8,2.,4.8,0.,4.8,0.,4.8
1979-08-03 21:12:22.610 ,0,1,0.,4.8,3.,4.8,0.,4.8,0.,4.8
1979-08-03 21:12:27.410 ,0,1,0.,4.8,1.,4.8,0.,4.8,0.,4.8
1979-08-03 21:12:32.210 ,0,1,0.,4.8,2.,4.8,2.,4.8,0.,4.8
1979-08-03 21:12:37.010 ,0,1,0.,4.8,3.,4.8,0.,4.8,0.,4.8
1979-08-03 21:12:41.810 ,0,1,0.,4.8,1.,4.8,0.,4.8,0.,4.8
1979-08-03 21:12:46.610 ,4,1,0.,4.8,4.,4.8,0.,4.8,0.,4.8
1979-08-03 21:12:51.410 ,4,1,0.,4.8,2.,4.8,0.,4.8,0.,4.8
1979-08-03 21:12:56.210 ,4,1,0.,4.8,4.,4.8,0.,4.8,0.,4.8
1979-08-03 21:13:01.010 ,4,1,0.,4.8,2.,4.8,0.,4.8,0.,4.8
1979-08-03 21:13:05.810 ,4,1,0.,4.8,0.,4.8,0.,4.8,0.,4.8
1979-08-03 21:13:10.610 ,7,1,0.,4.8,3.,4.8,1.,4.8,0.,4.8
1979-08-03 21:13:15.410 ,7,1,0.,4.8,2.,4.8,2.,4.8,0.,4.8
1979-08-03 21:13:20.210 ,7,1,0.,4.8,0.,4.8,0.,4.8,0.,4.8
1979-08-03 21:13:25.010 ,7,1,0.,4.8,1.,4.8,0.,4.8,0.,4.8
1979-08-03 21:13:29.810 ,7,1,0.,4.8,0.,4.8,0.,4.8,0.,4.8
1979-08-03 21:13:34.610 ,3,1,0.,4.8,0.,4.8,0.,4.8,0.,4.8
1979-08-03 21:13:39.410 ,3,1,0.,4.8,1.,4.8,0.,4.8,0.,4.8
1979-08-03 21:13:44.210 ,3,1,0.,4.8,2.,4.8,0.,4.8,2.,4.8
1979-08-03 21:13:49.010 ,3,1,0.,4.8,2.,4.8,0.,4.8,0.,4.8
1979-08-03 21:13:53.810 ,3,1,0.,4.8,0.,4.8,0.,4.8,1.,4.8
1979-08-03 21:13:58.610 ,0,1,0.,4.8,1.,4.8,0.,4.8,0.,4.8
1979-08-03 21:14:03.410 ,0,1,0.,4.8,2.,4.8,0.,4.8,0.,4.8
1979-08-03 21:14:08.210 ,0,1,0.,4.8,2.,4.8,0.,4.8,0.,4.8
1979-08-03 21:14:13.010 ,0,1,0.,4.8,1.,4.8,0.,4.8,0.,4.8
1979-08-03 21:14:17.810 ,0,1,0.,4.8,4.,4.8,0.,4.8,0.,4.8
1979-08-03 21:14:22.610 ,4,1,0.,4.8,1.,4.8,0.,4.8,0.,4.8
1979-08-03 21:14:27.410 ,4,1,0.,4.8,0.,4.8,0.,4.8,1.,4.8
1979-08-03 21:14:32.210 ,4,1,0.,4.8,2.,4.8,0.,4.8,0.,4.8
1979-08-03 21:14:37.010 ,4,1,0.,4.8,0.,4.8,0.,4.8,0.,4.8
1979-08-03 21:14:41.810 ,4,1,0.,4.8,1.,4.8,0.,4.8,0.,4.8
1979-08-03 21:14:46.610 ,7,1,0.,4.8,1.,4.8,0.,4.8,0.,4.8
1979-08-03 21:14:51.410 ,7,1,0.,4.8,2.,4.8,1.,4.8,1.,4.8
1979-08-03 21:14:56.210 ,7,1,0.,4.8,2.,4.8,1.,4.8,1.,4.8
1979-08-03 21:15:01.010 ,7,1,0.,4.8,0.,4.8,0.,4.8,0.,4.8
1979-08-03 21:15:05.810 ,7,1,0.,4.8,0.,4.8,0.,4.8,0.,4.8
1979-08-03 21:15:10.610 ,3,1,0.,4.8,1.,4.8,0.,4.8,1.,4.8
1979-08-03 21:15:15.410 ,3,1,0.,4.8,2.,4.8,0.,4.8,0.,4.8
1979-08-03 21:15:20.210 ,3,1,0.,4.8,1.,4.8,1.,4.8,0.,4.8
1979-08-03 21:15:25.010 ,3,1,0.,4.8,0.,4.8,0.,4.8,0.,4.8
1979-08-03 21:15:29.810 ,3,1,0.,4.8,2.,4.8,1.,4.8,0.,4.8
1979-08-03 21:15:34.610 ,0,1,0.,4.8,0.,4.8,0.,4.8,1.,4.8
1979-08-03 21:15:39.410 ,0,1,0.,4.8,2.,4.8,0.,4.8,0.,4.8
1979-08-03 21:15:44.210 ,0,1,0.,4.8,1.,4.8,0.,4.8,0.,4.8
1979-08-03 21:15:49.010 ,0,1,0.,4.8,1.,4.8,0.,4.8,0.,4.8
1979-08-03 21:15:53.810 ,0,1,0.,4.8,1.,4.8,0.,4.8,0.,4.8
1979-08-03 21:15:58.610 ,4,1,0.,4.8,1.,4.8,0.,4.8,0.,4.8
1979-08-03 21:16:03.410 ,4,1,0.,4.8,1.,4.8,1.,4.8,0.,4.8
1979-08-03 21:16:08.210 ,4,1,0.,4.8,3.,4.8,0.,4.8,0.,4.8
1979-08-03 21:16:13.010 ,4,1,0.,4.8,2.,4.8,0.,4.8,0.,4.8
1979-08-03 21:16:17.810 ,4,1,0.,4.8,1.,4.8,1.,4.8,1.,4.8
1979-08-03 21:16:22.610 ,7,1,0.,4.8,2.,4.8,0.,4.8,0.,4.8
1979-08-03 21:16:27.410 ,7,1,0.,4.8,1.,4.8,0.,4.8,0.,4.8
1979-08-03 21:16:32.210 ,7,1,0.,4.8,2.,4.8,0.,4.8,0.,4.8
1979-08-03 21:16:37.010 ,7,1,0.,4.8,2.,4.8,0.,4.8,0.,4.8
1979-08-03 21:16:41.810 ,7,1,0.,4.8,1.,4.8,0.,4.8,1.,4.8
1979-08-03 21:16:46.610 ,3,1,0.,4.8,1.,4.8,0.,4.8,0.,4.8
1979-08-03 21:16:51.410 ,3,1,0.,4.8,1.,4.8,0.,4.8,0.,4.8
1979-08-03 21:16:56.210 ,3,1,0.,4.8,2.,4.8,1.,4.8,1.,4.8
1979-08-03 21:17:01.010 ,3,1,0.,4.8,0.,4.8,0.,4.8,0.,4.8
1979-08-03 21:17:05.810 ,3,1,0.,4.8,1.,4.8,0.,4.8,0.,4.8
1979-08-03 21:17:10.610 ,0,1,0.,4.8,0.,4.8,1.,4.8,0.,4.8
1979-08-03 21:17:15.410 ,0,1,0.,4.8,0.,4.8,1.,4.8,0.,4.8
1979-08-03 21:17:20.210 ,0,1,0.,4.8,1.,4.8,2.,4.8,0.,4.8
1979-08-03 21:17:25.010 ,0,1,0.,4.8,1.,4.8,1.,4.8,0.,4.8
1979-08-03 21:17:29.810 ,0,1,0.,4.8,2.,4.8,1.,4.8,0.,4.8
1979-08-03 21:17:34.610 ,0,0,0.,4.8,1.,4.8,0.,4.8,0.,4.8
1979-08-03 21:17:39.410 ,0,0,0.,4.8,4.,4.8,0.,4.8,0.,4.8
1979-08-03 21:17:44.210 ,0,0,0.,4.8,1.,4.8,1.,4.8,0.,4.8
1979-08-03 21:17:49.010 ,0,0,0.,4.8,2.,4.8,0.,4.8,0.,4.8
1979-08-03 21:17:53.810 ,0,0,0.,4.8,1.,4.8,1.,4.8,0.,4.8
1979-08-03 21:17:58.610 ,0,0,0.,4.8,2.,4.8,0.,4.8,0.,4.8
1979-08-03 21:18:03.410 ,0,0,0.,4.8,0.,4.8,0.,4.8,0.,4.8
1979-08-03 21:18:08.210 ,0,0,0.,4.8,0.,4.8,0.,4.8,0.,4.8
1979-08-03 21:18:13.010 ,0,0,0.,4.8,0.,4.8,0.,4.8,0.,4.8
1979-08-03 21:18:17.810 ,0,0,0.,4.8,0.,4.8,0.,4.8,0.,4.8
1979-08-03 21:18:22.610 ,5,0,0.,4.8,1.,4.8,0.,4.8,0.,4.8
1979-08-03 21:18:27.410 ,5,0,0.,4.8,1.,4.8,0.,4.8,1.,4.8
1979-08-03 21:18:32.210 ,5,0,0.,4.8,1.,4.8,0.,4.8,0.,4.8
1979-08-03 21:18:37.010 ,5,0,0.,4.8,0.,4.8,1.,4.8,0.,4.8
1979-08-03 21:18:41.810 ,5,0,0.,4.8,2.,4.8,0.,4.8,0.,4.8
1979-08-03 21:18:46.610 ,5,0,0.,4.8,3.,4.8,0.,4.8,0.,4.8
1979-08-03 21:18:51.410 ,5,0,0.,4.8,1.,4.8,1.,4.8,1.,4.8
1979-08-03 21:18:56.210 ,5,0,0.,4.8,1.,4.8,0.,4.8,0.,4.8
1979-08-03 21:19:01.010 ,5,0,0.,4.8,0.,4.8,0.,4.8,0.,4.8
1979-08-03 21:19:05.810 ,5,0,0.,4.8,1.,4.8,1.,4.8,0.,4.8
1979-08-03 21:19:10.610 ,4,0,0.,4.8,1.,4.8,1.,4.8,0.,4.8
1979-08-03 21:19:15.410 ,4,0,0.,4.8,1.,4.8,0.,4.8,1.,4.8
1979-08-03 21:19:20.210 ,4,0,0.,4.8,0.,4.8,0.,4.8,0.,4.8
1979-08-03 21:19:25.010 ,4,0,0.,4.8,1.,4.8,0.,4.8,0.,4.8
1979-08-03 21:19:29.810 ,4,0,0.,4.8,2.,4.8,1.,4.8,0.,4.8
1979-08-03 21:19:34.610 ,4,0,0.,4.8,0.,4.8,0.,4.8,0.,4.8
1979-08-03 21:19:39.410 ,4,0,0.,4.8,1.,4.8,0.,4.8,0.,4.8
1979-08-03 21:19:44.210 ,4,0,0.,4.8,1.,4.8,0.,4.8,0.,4.8
1979-08-03 21:19:49.010 ,4,0,0.,4.8,2.,4.8,0.,4.8,1.,4.8
1979-08-03 21:19:53.810 ,4,0,0.,4.8,0.,4.8,0.,4.8,0.,4.8
1979-08-03 21:19:58.610 ,3,0,0.,4.8,4.,4.8,0.,4.8,0.,4.8
1979-08-03 21:20:03.410 ,3,0,0.,4.8,1.,4.8,0.,4.8,1.,4.8
1979-08-03 21:20:08.210 ,3,0,0.,4.8,3.,4.8,1.,4.8,0.,4.8
1979-08-03 21:20:13.010 ,3,0,0.,4.8,1.,4.8,0.,4.8,0.,4.8
1979-08-03 21:20:17.810 ,3,0,0.,4.8,1.,4.8,1.,4.8,0.,4.8
1979-08-03 21:20:22.610 ,3,0,0.,4.8,1.,4.8,0.,4.8,0.,4.8
1979-08-03 21:20:27.410 ,3,0,0.,4.8,1.,4.8,0.,4.8,0.,4.8
1979-08-03 21:20:32.210 ,3,0,0.,4.8,1.,4.8,1.,4.8,0.,4.8
1979-08-03 21:20:37.010 ,3,0,0.,4.8,1.,4.8,0.,4.8,0.,4.8
1979-08-03 21:20:41.810 ,3,0,0.,4.8,4.,4.8,0.,4.8,0.,4.8
1979-08-03 21:20:46.610 ,2,0,0.,4.8,0.,4.8,0.,4.8,0.,4.8
1979-08-03 21:20:51.410 ,2,0,0.,4.8,2.,4.8,1.,4.8,0.,4.8
1979-08-03 21:20:56.210 ,2,0,0.,4.8,2.,4.8,0.,4.8,0.,4.8
1979-08-03 21:21:01.010 ,2,0,0.,4.8,4.,4.8,0.,4.8,0.,4.8
1979-08-03 21:21:05.810 ,2,0,0.,4.8,1.,4.8,0.,4.8,0.,4.8
1979-08-03 21:21:10.610 ,2,0,0.,4.8,2.,4.8,1.,4.8,0.,4.8
1979-08-03 21:21:15.410 ,2,0,0.,4.8,1.,4.8,0.,4.8,1.,4.8
1979-08-03 21:21:20.210 ,2,0,0.,4.8,1.,4.8,0.,4.8,0.,4.8
1979-08-03 21:21:25.010 ,2,0,0.,4.8,1.,4.8,0.,4.8,0.,4.8
1979-08-03 21:21:29.810 ,2,0,0.,4.8,0.,4.8,0.,4.8,0.,4.8
1979-08-03 21:21:34.610 ,1,0,0.,4.8,1.,4.8,0.,4.8,0.,4.8
1979-08-03 21:21:39.410 ,1,0,0.,4.8,1.,4.8,0.,4.8,0.,4.8
1979-08-03 21:21:44.210 ,1,0,0.,4.8,4.,4.8,0.,4.8,0.,4.8
1979-08-03 21:21:49.010 ,1,0,0.,4.8,2.,4.8,1.,4.8,0.,4.8
1979-08-03 21:21:53.810 ,1,0,0.,4.8,4.,4.8,0.,4.8,0.,4.8
1979-08-03 21:21:58.610 ,1,0,0.,4.8,3.,4.8,0.,4.8,0.,4.8
1979-08-03 21:22:03.410 ,1,0,0.,4.8,2.,4.8,0.,4.8,0.,4.8
1979-08-03 21:22:08.210 ,1,0,0.,4.8,2.,4.8,2.,4.8,0.,4.8
1979-08-03 21:22:13.010 ,1,0,0.,4.8,3.,4.8,1.,4.8,0.,4.8
1979-08-03 21:22:17.810 ,1,0,0.,4.8,1.,4.8,0.,4.8,1.,4.8
1979-08-03 21:22:22.610 ,0,0,0.,4.8,0.,4.8,0.,4.8,0.,4.8
1979-08-03 21:22:27.410 ,0,0,0.,4.8,3.,4.8,0.,4.8,0.,4.8
1979-08-03 21:22:32.210 ,0,0,0.,4.8,2.,4.8,0.,4.8,0.,4.8
1979-08-03 21:22:37.010 ,0,0,0.,4.8,0.,4.8,0.,4.8,0.,4.8
1979-08-03 21:22:41.810 ,0,0,0.,4.8,4.,4.8,1.,4.8,0.,4.8
1979-08-03 21:22:46.610 ,0,0,0.,4.8,1.,4.8,0.,4.8,0.,4.8
1979-08-03 21:22:51.410 ,0,0,0.,4.8,0.,4.8,0.,4.8,0.,4.8
1979-08-03 21:22:56.210 ,0,0,0.,4.8,0.,4.8,0.,4.8,0.,4.8
1979-08-03 21:23:01.010 ,0,0,0.,4.8,1.,4.8,0.,4.8,0.,4.8
1979-08-03 21:23:05.810 ,0,0,0.,4.8,4.,4.8,1.,4.8,0.,4.8
1979-08-03 21:23:10.610 ,0,0,0.,4.8,1.,4.8,0.,4.8,0.,4.8
1979-08-03 21:23:15.410 ,0,0,0.,4.8,2.,4.8,3.,4.8,0.,4.8
1979-08-03 21:23:20.210 ,0,0,0.,4.8,3.,4.8,2.,4.8,2.,4.8
1979-08-03 21:23:25.010 ,0,0,0.,4.8,1.,4.8,0.,4.8,0.,4.8
1979-08-03 21:23:29.810 ,0,0,0.,4.8,2.,4.8,1.,4.8,0.,4.8
1979-08-03 21:23:34.610 ,0,0,0.,4.8,4.,4.8,1.,4.8,1.,4.8
1979-08-03 21:23:39.410 ,0,0,0.,4.8,0.,4.8,0.,4.8,0.,4.8
1979-08-03 21:23:44.210 ,0,0,0.,4.8,2.,4.8,0.,4.8,1.,4.8
1979-08-03 21:23:49.010 ,0,0,0.,4.8,2.,4.8,1.,4.8,0.,4.8
1979-08-03 21:23:53.810 ,0,0,0.,4.8,6.,4.8,0.,4.8,0.,4.8
1979-08-03 21:23:58.610 ,1,0,0.,4.8,5.,4.8,0.,4.8,0.,4.8
1979-08-03 21:24:03.410 ,1,0,0.,4.8,3.,4.8,0.,4.8,0.,4.8
1979-08-03 21:24:08.210 ,1,0,0.,4.8,1.,4.8,0.,4.8,1.,4.8
1979-08-03 21:24:13.010 ,1,0,0.,4.8,0.,4.8,0.,4.8,0.,4.8
1979-08-03 21:24:17.810 ,1,0,0.,4.8,2.,4.8,1.,4.8,0.,4.8
1979-08-03 21:24:22.610 ,1,0,0.,4.8,4.,4.8,0.,4.8,0.,4.8
1979-08-03 21:24:27.410 ,1,0,0.,4.8,1.,4.8,1.,4.8,0.,4.8
1979-08-03 21:24:32.210 ,1,0,0.,4.8,2.,4.8,0.,4.8,0.,4.8
1979-08-03 21:24:37.010 ,1,0,0.,4.8,1.,4.8,0.,4.8,0.,4.8
1979-08-03 21:24:41.810 ,1,0,0.,4.8,0.,4.8,0.,4.8,0.,4.8
1979-08-03 21:24:46.610 ,2,0,0.,4.8,2.,4.8,1.,4.8,0.,4.8
1979-08-03 21:24:51.410 ,2,0,0.,4.8,4.,4.8,0.,4.8,0.,4.8
1979-08-03 21:24:56.210 ,2,0,0.,4.8,0.,4.8,0.,4.8,0.,4.8
1979-08-03 21:25:01.010 ,2,0,0.,4.8,1.,4.8,0.,4.8,0.,4.8
1979-08-03 21:25:05.810 ,2,0,0.,4.8,3.,4.8,0.,4.8,0.,4.8
1979-08-03 21:25:10.610 ,2,0,0.,4.8,2.,4.8,0.,4.8,2.,4.8
1979-08-03 21:25:15.410 ,2,0,0.,4.8,2.,4.8,0.,4.8,0.,4.8
1979-08-03 21:25:20.210 ,2,0,0.,4.8,2.,4.8,1.,4.8,0.,4.8
1979-08-03 21:25:25.010 ,2,0,0.,4.8,0.,4.8,0.,4.8,0.,4.8
1979-08-03 21:25:29.810 ,2,0,0.,4.8,1.,4.8,0.,4.8,0.,4.8
1979-08-03 21:25:34.610 ,3,0,0.,4.8,2.,4.8,1.,4.8,0.,4.8
1979-08-03 21:25:39.410 ,3,0,0.,4.8,0.,4.8,0.,4.8,1.,4.8
1979-08-03 21:25:44.210 ,3,0,0.,4.8,0.,4.8,0.,4.8,0.,4.8
1979-08-03 21:25:49.010 ,3,0,0.,4.8,1.,4.8,1.,4.8,0.,4.8
1979-08-03 21:25:53.810 ,3,0,0.,4.8,1.,4.8,0.,4.8,0.,4.8
1979-08-03 21:25:58.610 ,3,0,0.,4.8,2.,4.8,0.,4.8,0.,4.8
1979-08-03 21:26:03.410 ,3,0,0.,4.8,2.,4.8,0.,4.8,0.,4.8
1979-08-03 21:26:08.210 ,3,0,0.,4.8,1.,4.8,0.,4.8,0.,4.8
1979-08-03 21:26:13.010 ,3,0,0.,4.8,3.,4.8,1.,4.8,0.,4.8
1979-08-03 21:26:17.810 ,3,0,0.,4.8,1.,4.8,0.,4.8,0.,4.8
1979-08-03 21:26:22.610 ,4,0,0.,4.8,0.,4.8,0.,4.8,0.,4.8
1979-08-03 21:26:27.410 ,4,0,0.,4.8,0.,4.8,1.,4.8,0.,4.8
1979-08-03 21:26:32.210 ,4,0,0.,4.8,2.,4.8,1.,4.8,0.,4.8
1979-08-03 21:26:37.010 ,4,0,0.,4.8,1.,4.8,0.,4.8,0.,4.8
1979-08-03 21:26:41.810 ,4,0,0.,4.8,1.,4.8,0.,4.8,0.,4.8
1979-08-03 21:26:46.610 ,4,0,0.,4.8,0.,4.8,0.,4.8,1.,4.8
1979-08-03 21:26:51.410 ,4,0,0.,4.8,0.,4.8,1.,4.8,0.,4.8
1979-08-03 21:26:56.210 ,4,0,0.,4.8,1.,4.8,0.,4.8,0.,4.8
1979-08-03 21:27:01.010 ,4,0,0.,4.8,1.,4.8,0.,4.8,0.,4.8
1979-08-03 21:27:05.810 ,4,0,0.,4.8,2.,4.8,0.,4.8,0.,4.8
1979-08-03 21:27:10.610 ,5,0,0.,4.8,0.,4.8,1.,4.8,0.,4.8
1979-08-03 21:27:15.410 ,5,0,0.,4.8,1.,4.8,0.,4.8,0.,4.8
1979-08-03 21:27:20.210 ,5,0,0.,4.8,1.,4.8,1.,4.8,0.,4.8
1979-08-03 21:27:25.010 ,5,0,0.,4.8,0.,4.8,0.,4.8,0.,4.8
1979-08-03 21:27:29.810 ,5,0,0.,4.8,1.,4.8,0.,4.8,0.,4.8
1979-08-03 21:27:34.610 ,5,0,0.,4.8,2.,4.8,0.,4.8,0.,4.8
1979-08-03 21:27:39.410 ,5,0,0.,4.8,2.,4.8,0.,4.8,0.,4.8
1979-08-03 21:27:44.210 ,5,0,0.,4.8,2.,4.8,0.,4.8,1.,4.8
1979-08-03 21:27:49.010 ,5,0,0.,4.8,1.,4.8,1.,4.8,0.,4.8
1979-08-03 21:27:53.810 ,5,0,0.,4.8,2.,4.8,0.,4.8,0.,4.8
1979-08-03 21:27:58.610 ,6,0,0.,4.8,2.,4.8,1.,4.8,0.,4.8
1979-08-03 21:28:03.410 ,6,0,0.,4.8,5.,4.8,0.,4.8,0.,4.8
1979-08-03 21:28:08.210 ,6,0,0.,4.8,2.,4.8,0.,4.8,0.,4.8
1979-08-03 21:28:13.010 ,6,0,0.,4.8,4.,4.8,0.,4.8,0.,4.8
1979-08-03 21:28:17.810 ,6,0,0.,4.8,1.,4.8,0.,4.8,0.,4.8
1979-08-03 21:28:22.610 ,6,0,0.,4.8,1.,4.8,0.,4.8,0.,4.8
1979-08-03 21:28:27.410 ,6,0,0.,4.8,2.,4.8,1.,4.8,0.,4.8
1979-08-03 21:28:32.210 ,6,0,0.,4.8,0.,4.8,0.,4.8,0.,4.8
1979-08-03 21:28:37.010 ,6,0,0.,4.8,0.,4.8,0.,4.8,0.,4.8
1979-08-03 21:28:41.810 ,6,0,0.,4.8,2.,4.8,0.,4.8,0.,4.8
1979-08-03 21:28:46.610 ,7,0,0.,4.8,3.,4.8,0.,4.8,1.,4.8
1979-08-03 21:28:51.410 ,7,0,0.,4.8,1.,4.8,0.,4.8,0.,4.8
1979-08-03 21:28:56.210 ,7,0,0.,4.8,0.,4.8,0.,4.8,0.,4.8
1979-08-03 21:29:01.010 ,7,0,0.,4.8,1.,4.8,1.,4.8,0.,4.8
1979-08-03 21:29:05.810 ,7,0,0.,4.8,0.,4.8,0.,4.8,0.,4.8
1979-08-03 21:29:10.610 ,7,0,0.,4.8,2.,4.8,0.,4.8,0.,4.8
1979-08-03 21:29:15.410 ,7,0,0.,4.8,0.,4.8,0.,4.8,0.,4.8
1979-08-03 21:29:20.210 ,7,0,0.,4.8,0.,4.8,0.,4.8,0.,4.8
1979-08-03 21:29:25.010 ,7,0,0.,4.8,3.,4.8,0.,4.8,0.,4.8
1979-08-03 21:29:29.810 ,7,0,0.,4.8,0.,4.8,0.,4.8,0.,4.8
1979-08-03 21:29:34.610 ,7,0,0.,4.8,1.,4.8,0.,4.8,1.,4.8
1979-08-03 21:29:39.410 ,7,0,0.,4.8,1.,4.8,0.,4.8,0.,4.8
1979-08-03 21:29:44.210 ,7,0,0.,4.8,1.,4.8,0.,4.8,0.,4.8
1979-08-03 21:29:49.010 ,7,0,0.,4.8,0.,4.8,0.,4.8,0.,4.8
1979-08-03 21:29:53.810 ,7,0,0.,4.8,0.,4.8,0.,4.8,0.,4.8
1979-08-03 21:29:58.610 ,7,0,0.,4.8,0.,4.8,0.,4.8,0.,4.8
1979-08-03 21:30:03.410 ,7,0,0.,4.8,0.,4.8,0.,4.8,1.,4.8
1979-08-03 21:30:08.210 ,7,0,0.,4.8,0.,4.8,0.,4.8,0.,4.8
1979-08-03 21:30:13.010 ,7,0,0.,4.8,0.,4.8,0.,4.8,0.,4.8
1979-08-03 21:30:17.810 ,7,0,0.,4.8,0.,4.8,1.,4.8,0.,4.8
1979-08-03 21:30:22.610 ,6,0,0.,4.8,0.,4.8,0.,4.8,0.,4.8
1979-08-03 21:30:27.410 ,6,0,0.,4.8,1.,4.8,0.,4.8,1.,4.8
1979-08-03 21:30:32.210 ,6,0,0.,4.8,1.,4.8,0.,4.8,0.,4.8
1979-08-03 21:30:37.010 ,6,0,0.,4.8,1.,4.8,0.,4.8,0.,4.8
1979-08-03 21:30:41.810 ,6,0,0.,4.8,3.,4.8,0.,4.8,0.,4.8
1979-08-03 21:30:46.610 ,6,0,0.,4.8,1.,4.8,0.,4.8,0.,4.8
1979-08-03 21:30:51.410 ,6,0,0.,4.8,1.,4.8,1.,4.8,0.,4.8
1979-08-03 21:30:56.210 ,6,0,0.,4.8,1.,4.8,0.,4.8,0.,4.8
1979-08-03 21:31:01.010 ,6,0,0.,4.8,1.,4.8,0.,4.8,0.,4.8
1979-08-03 21:31:05.810 ,6,0,0.,4.8,1.,4.8,0.,4.8,0.,4.8
1979-08-03 21:31:10.610 ,5,0,0.,4.8,2.,4.8,1.,4.8,0.,4.8
1979-08-03 21:31:15.410 ,5,0,0.,4.8,1.,4.8,0.,4.8,1.,4.8
1979-08-03 21:31:20.210 ,5,0,0.,4.8,1.,4.8,1.,4.8,0.,4.8
1979-08-03 21:31:25.010 ,5,0,0.,4.8,1.,4.8,0.,4.8,0.,4.8
1979-08-03 21:31:29.810 ,5,0,0.,4.8,1.,4.8,0.,4.8,1.,4.8
1979-08-03 21:31:34.610 ,5,0,0.,4.8,2.,4.8,0.,4.8,0.,4.8
1979-08-03 21:31:39.410 ,5,0,0.,4.8,0.,4.8,0.,4.8,0.,4.8
1979-08-03 21:31:44.210 ,5,0,0.,4.8,0.,4.8,1.,4.8,0.,4.8
1979-08-03 21:31:49.010 ,5,0,0.,4.8,2.,4.8,0.,4.8,0.,4.8
1979-08-03 21:31:53.810 ,5,0,0.,4.8,1.,4.8,0.,4.8,0.,4.8
1979-08-03 21:31:58.610 ,4,0,0.,4.8,1.,4.8,2.,4.8,0.,4.8
1979-08-03 21:32:03.410 ,4,0,0.,4.8,1.,4.8,0.,4.8,0.,4.8
1979-08-03 21:32:08.210 ,4,0,0.,4.8,1.,4.8,1.,4.8,0.,4.8
1979-08-03 21:32:13.010 ,4,0,0.,4.8,1.,4.8,1.,4.8,0.,4.8
1979-08-03 21:32:17.810 ,4,0,0.,4.8,1.,4.8,1.,4.8,0.,4.8
1979-08-03 21:32:22.610 ,4,0,0.,4.8,1.,4.8,0.,4.8,0.,4.8
1979-08-03 21:32:27.410 ,4,0,0.,4.8,0.,4.8,0.,4.8,0.,4.8
1979-08-03 21:32:32.210 ,4,0,0.,4.8,2.,4.8,1.,4.8,0.,4.8
1979-08-03 21:32:37.010 ,4,0,0.,4.8,0.,4.8,0.,4.8,0.,4.8
1979-08-03 21:32:41.810 ,4,0,0.,4.8,2.,4.8,0.,4.8,0.,4.8
1979-08-03 21:32:46.610 ,3,0,0.,4.8,0.,4.8,0.,4.8,2.,4.8
1979-08-03 21:32:51.410 ,3,0,0.,4.8,0.,4.8,0.,4.8,1.,4.8
1979-08-03 21:32:56.210 ,3,0,0.,4.8,2.,4.8,0.,4.8,0.,4.8
1979-08-03 21:33:01.010 ,3,0,0.,4.8,1.,4.8,0.,4.8,0.,4.8
1979-08-03 21:33:05.810 ,3,0,0.,4.8,1.,4.8,1.,4.8,1.,4.8
1979-08-03 21:33:10.610 ,3,0,0.,4.8,3.,4.8,0.,4.8,0.,4.8
1979-08-03 21:33:15.410 ,3,0,0.,4.8,0.,4.8,1.,4.8,0.,4.8